Weather History for KWDR - August, 2013

Change the Weather History Date:

Tuesday, August 13, 2013

  Actual Average Record
Temperature  
Mean Temperature - -  
Max Temperature - 85 °F 98 °F (1959)
Min Temperature - 64 °F 52 °F (1964)
Moisture  
Dew Point -    
Average Humidity    
Maximum Humidity    
Minimum Humidity    
Precipitation  
Precipitation 0.00 in - - ()
Sea Level Pressure  
Sea Level Pressure 30.00 in    
Wind  
Wind Speed 5 mph (West)    
Max Wind Speed 29 mph    
Max Gust Speed 36 mph    
Visibility 10 miles    
Events      
Averages and records for this station are not official NWS values.
T = Trace of Precipitation, MM = Missing Value Source: NWS Daily Summary

Daily Weather History Graph

Daily Weather History Graph

Search for Another Location

Airport or City:

Trip Planner

Search our weather history database for the weather conditions in past years. The results will help you decide how hot, cold, wet, or windy it might be!

Date:

Astronomy

Aug. 13, 2013 Rise Set
Actual Time 6:55 AM EDT 8:23 PM EDT
Civil Twilight 6:28 AM EDT 8:49 PM EDT
Nautical Twilight 5:56 AM EDT 9:21 PM EDT
Astronomical Twilight 5:23 AM EDT 9:54 PM EDT
Moon 1:27 PM EDT (8/13) No Moon Set
Length of Visible Light 14h 21m
Length of Day
13h 28m
Waxing Crescent, 41% of the Moon is Illuminated
Aug 13
Waxing Crescent
Aug 14
First Quarter
Aug 20
Full
Aug 28
Last Quarter
Sep 5
New

Hourly Weather History & Observations

Time (EDT) Temp. Dew Point Humidity Pressure Visibility Wind Dir Wind Speed Gust Speed Precip Events Conditions
12:55 AM - - N/A% 30.07 in 10.0 mi West 3.5 mph - N/A   Mostly Cloudy
1:15 AM - - N/A% 30.06 in 10.0 mi WSW 3.5 mph - N/A   Mostly Cloudy
1:35 AM - - N/A% 30.05 in 10.0 mi West 3.5 mph - N/A   Scattered Clouds
1:55 AM - - N/A% 30.05 in 10.0 mi West 5.8 mph - N/A   Clear
2:15 AM - - N/A% 30.04 in 10.0 mi West 5.8 mph - N/A   Clear
2:35 AM - - N/A% 30.03 in 10.0 mi WSW 5.8 mph - N/A   Clear
2:55 AM - - N/A% 30.03 in 10.0 mi SW 6.9 mph - N/A   Clear
3:15 AM - - N/A% 30.03 in 10.0 mi WSW 4.6 mph - N/A   Clear
3:35 AM - - N/A% 30.01 in 10.0 mi WSW 4.6 mph - N/A   Clear
3:55 AM - - N/A% 30.01 in 10.0 mi SW 4.6 mph - N/A   Clear
4:15 AM - - N/A% 30.01 in 10.0 mi WSW 3.5 mph - N/A   Clear
4:35 AM - - N/A% 30.01 in 10.0 mi WSW 3.5 mph - N/A   Clear
4:55 AM - - N/A% 30.01 in 10.0 mi WSW 4.6 mph - N/A   Clear
5:15 AM - - N/A% 30.01 in 10.0 mi West 3.5 mph - N/A   Clear
5:35 AM - - N/A% 30.01 in 10.0 mi West 3.5 mph - N/A   Clear
5:55 AM - - N/A% 30.01 in 10.0 mi Calm Calm - N/A   Clear
6:15 AM - - N/A% 30.02 in 10.0 mi Calm Calm - N/A   Clear
6:35 AM - - N/A% 30.02 in 10.0 mi Calm Calm - N/A   Mostly Cloudy
6:55 AM - - N/A% 30.03 in 10.0 mi Calm Calm - N/A   Mostly Cloudy
7:15 AM - - N/A% 30.02 in 10.0 mi SW 4.6 mph - N/A   Mostly Cloudy
7:35 AM - - N/A% 30.03 in 10.0 mi WSW 4.6 mph - N/A   Mostly Cloudy
7:55 AM - - N/A% 30.03 in 10.0 mi WSW 5.8 mph - N/A   Mostly Cloudy
8:15 AM - - N/A% 30.03 in 10.0 mi West 4.6 mph - N/A   Overcast
8:35 AM - - N/A% 30.03 in 10.0 mi West 6.9 mph - N/A   Mostly Cloudy
8:55 AM - - N/A% 30.04 in 10.0 mi West 5.8 mph - N/A   Mostly Cloudy
9:15 AM - - N/A% 30.04 in 10.0 mi West 5.8 mph - N/A   Clear
9:35 AM - - N/A% 30.03 in 10.0 mi West 8.1 mph - N/A   Scattered Clouds
9:55 AM - - N/A% 30.03 in 10.0 mi West 10.4 mph - N/A   Scattered Clouds
10:15 AM - - N/A% 30.03 in 10.0 mi West 10.4 mph 17.3 mph N/A   Scattered Clouds
10:35 AM - - N/A% 30.04 in 10.0 mi West 9.2 mph - N/A   Mostly Cloudy
10:55 AM - - N/A% 30.04 in 10.0 mi West 9.2 mph - N/A   Scattered Clouds
11:15 AM - - N/A% 30.03 in 10.0 mi West 4.6 mph - N/A   Mostly Cloudy
11:35 AM - - N/A% 30.04 in 10.0 mi West 5.8 mph - N/A   Overcast
11:55 AM - - N/A% 30.04 in 10.0 mi West 8.1 mph - N/A   Overcast
12:15 PM - - N/A% 30.04 in 10.0 mi West 6.9 mph - N/A   Overcast
12:35 PM - - N/A% 30.03 in 10.0 mi West 8.1 mph - N/A   Overcast
12:55 PM - - N/A% 30.02 in 10.0 mi WNW 9.2 mph - N/A   Scattered Clouds
1:15 PM - - N/A% 30.02 in 10.0 mi West 10.4 mph 16.1 mph N/A   Scattered Clouds
1:35 PM - - N/A% 30.01 in 10.0 mi West 8.1 mph - N/A   Scattered Clouds
1:55 PM - - N/A% 30.01 in 10.0 mi NW 12.7 mph 16.1 mph N/A   Scattered Clouds
2:15 PM - - N/A% 30.01 in 10.0 mi WNW 6.9 mph - N/A   Scattered Clouds
2:35 PM - - N/A% 30.00 in 10.0 mi West 10.4 mph 16.1 mph N/A   Scattered Clouds
2:55 PM - - N/A% 29.99 in 10.0 mi WNW 9.2 mph - N/A   Scattered Clouds
3:15 PM - - N/A% 29.98 in 10.0 mi West 9.2 mph - N/A   Scattered Clouds
3:35 PM - - N/A% 29.98 in 10.0 mi WNW 9.2 mph - N/A   Scattered Clouds
3:55 PM - - N/A% 29.96 in 10.0 mi West 4.6 mph - N/A   Scattered Clouds
4:15 PM - - N/A% 29.96 in 10.0 mi West 8.1 mph - N/A   Clear
4:35 PM - - N/A% 29.95 in 10.0 mi WNW 8.1 mph - N/A   Clear
4:55 PM - - N/A% 29.95 in 10.0 mi West 5.8 mph - N/A   Clear
5:15 PM - - N/A% 29.95 in 10.0 mi West 5.8 mph - N/A   Clear
5:35 PM - - N/A% 29.96 in 7.0 mi North 28.8 mph 35.7 mph N/A   Scattered Clouds
5:55 PM - - N/A% 29.97 in 10.0 mi North 10.4 mph - N/A   Overcast
6:15 PM - - N/A% 29.95 in 10.0 mi NW 3.5 mph - N/A   Mostly Cloudy
6:35 PM - - N/A% 29.95 in 10.0 mi WSW 3.5 mph - N/A   Scattered Clouds
6:55 PM - - N/A% 29.95 in 10.0 mi West 5.8 mph - N/A   Scattered Clouds
7:55 PM - - N/A% 29.95 in 10.0 mi Calm Calm - N/A   Clear
8:15 PM - - N/A% 29.95 in 10.0 mi WSW 3.5 mph - N/A   Clear
8:35 PM - - N/A% 29.95 in 10.0 mi WSW 3.5 mph - N/A   Clear
8:55 PM - - N/A% 29.95 in 10.0 mi West 3.5 mph - N/A   Clear
9:15 PM - - N/A% 29.96 in 10.0 mi WSW 4.6 mph - N/A   Scattered Clouds
9:35 PM - - N/A% 29.96 in 10.0 mi West 4.6 mph - N/A   Mostly Cloudy
9:55 PM - - N/A% 29.97 in 10.0 mi West 4.6 mph - N/A   Clear
10:15 PM - - N/A% 29.98 in 10.0 mi WNW 3.5 mph - N/A   Clear
10:35 PM - - N/A% 29.97 in 10.0 mi Calm Calm - N/A   Clear
10:55 PM - - N/A% 29.98 in 10.0 mi WNW 4.6 mph - N/A   Scattered Clouds
11:15 PM - - N/A% 29.97 in 10.0 mi WNW 5.8 mph - N/A   Scattered Clouds
11:35 PM - - N/A% 29.97 in 10.0 mi WNW 3.5 mph - N/A   Clear
11:55 PM - - N/A% 29.97 in 10.0 mi West 6.9 mph - N/A   Scattered Clouds